IAM7VH ZZZZ-EKCH

Flight info

Callsign IAM7VH
Flight time N/A
Altitude 24000
Route NEXEN T503 MICOS N850 BOGMU BOGMU5A
Aircraft A320/M-SDE3FGHIJ5RWY/LB1

Departure

Time N/A
Airport ZZZZ

Arrival

Time 2026-05-05 11:41
Airport Copenhagen Kastrup Airport (EKCH)
Time Latitude Longitude Altitude Speed Heading
2026-05-05 10:56 54.94954 11.94258 23932 ft 415 kts 140°
2026-05-05 10:57 54.93232 11.98356 23932 ft 427 kts 119°
2026-05-05 10:57 54.92442 12.03371 23929 ft 437 kts 96°
2026-05-05 10:57 54.92760 12.08628 23929 ft 442 kts 73°
2026-05-05 10:57 54.94170 12.13352 23929 ft 442 kts 50°
2026-05-05 10:58 54.96275 12.17290 23958 ft 448 kts 44°
2026-05-05 10:58 54.98472 12.21163 23955 ft 450 kts 44°
2026-05-05 10:58 55.00686 12.25019 23960 ft 450 kts 43°
2026-05-05 10:58 55.02905 12.28871 23964 ft 451 kts 44°
2026-05-05 10:59 55.05126 12.32744 23958 ft 451 kts 44°
2026-05-05 10:59 55.07309 12.36577 23957 ft 451 kts 44°
2026-05-05 10:59 55.09544 12.40531 23953 ft 451 kts 44°
2026-05-05 10:59 55.11741 12.44440 23953 ft 451 kts 44°
2026-05-05 11:00 55.13912 12.48316 23958 ft 452 kts 44°
2026-05-05 11:00 55.16099 12.52225 23951 ft 445 kts 44°
2026-05-05 11:00 55.18221 12.56030 23955 ft 427 kts 44°
2026-05-05 11:00 55.20257 12.59684 23948 ft 411 kts 44°
2026-05-05 11:01 55.22212 12.63190 23951 ft 394 kts 44°
2026-05-05 11:01 55.24007 12.66691 23950 ft 379 kts 56°
2026-05-05 11:01 55.25147 12.70717 23949 ft 361 kts 75°
2026-05-05 11:01 55.25557 12.74949 23953 ft 348 kts 94°
2026-05-05 11:02 55.25307 12.79117 23952 ft 340 kts 110°
2026-05-05 11:02 55.24474 12.82921 23958 ft 330 kts 126°
2026-05-05 11:02 55.23164 12.86137 23955 ft 320 kts 141°
2026-05-05 11:02 55.22093 12.87869 23951 ft 314 kts 150°
2026-05-05 11:03 55.20264 12.89823 23957 ft 304 kts 163°
2026-05-05 11:03 55.18277 12.90949 23952 ft 296 kts 176°
2026-05-05 11:03 55.16260 12.91247 23949 ft 288 kts 188°
2026-05-05 11:03 55.14296 12.90770 23950 ft 282 kts 200°
2026-05-05 11:04 55.12477 12.89583 23951 ft 278 kts 211°
2026-05-05 11:04 55.10863 12.87768 23951 ft 275 kts 221°
2026-05-05 11:04 55.09512 12.85419 23945 ft 274 kts 232°
2026-05-05 11:04 55.08459 12.82651 23947 ft 274 kts 240°
2026-05-05 11:05 55.07601 12.79677 23947 ft 275 kts 244°
2026-05-05 11:05 55.06829 12.76623 23940 ft 275 kts 245°
2026-05-05 11:05 55.06085 12.73538 23950 ft 276 kts 246°
2026-05-05 11:05 55.05345 12.70456 23953 ft 276 kts 246°
2026-05-05 11:06 55.04605 12.67415 23948 ft 276 kts 245°
2026-05-05 11:06 55.03848 12.64335 23956 ft 276 kts 245°
2026-05-05 11:06 55.03085 12.61266 23951 ft 276 kts 245°
2026-05-05 11:06 55.02384 12.58145 23948 ft 277 kts 252°
2026-05-05 11:07 55.02028 12.54847 23955 ft 279 kts 263°
2026-05-05 11:07 55.02086 12.51446 23956 ft 283 kts 275°
2026-05-05 11:07 55.02585 12.48105 23963 ft 288 kts 287°
2026-05-05 11:07 55.03522 12.44984 23964 ft 295 kts 299°
2026-05-05 11:08 55.04880 12.42262 23957 ft 302 kts 312°
2026-05-05 11:08 55.06620 12.40117 23958 ft 311 kts 326°
2026-05-05 11:08 55.08659 12.38742 23964 ft 320 kts 340°
2026-05-05 11:08 55.10900 12.38279 23954 ft 329 kts 356°
2026-05-05 11:09 55.13185 12.38833 23840 ft 336 kts 12°
2026-05-05 11:09 55.15346 12.40461 23459 ft 341 kts 30°
2026-05-05 11:09 55.17181 12.43083 23027 ft 343 kts 47°
2026-05-05 11:09 55.18562 12.46472 22631 ft 341 kts 61°
2026-05-05 11:10 55.19655 12.50144 22251 ft 339 kts 65°
2026-05-05 11:10 55.20621 12.53896 21886 ft 337 kts 68°
2026-05-05 11:10 55.21521 12.57673 21538 ft 334 kts 69°
2026-05-05 11:10 55.22401 12.61433 21037 ft 338 kts 68°
2026-05-05 11:11 55.23314 12.65343 20154 ft 354 kts 71°
2026-05-05 11:11 55.23748 12.69572 19702 ft 351 kts 94°
2026-05-05 11:11 55.23385 12.73720 19339 ft 342 kts 114°
2026-05-05 11:11 55.22297 12.77321 18972 ft 330 kts 134°
2026-05-05 11:12 55.20680 12.79965 18614 ft 318 kts 153°
2026-05-05 11:12 55.18721 12.81559 18244 ft 306 kts 171°
2026-05-05 11:12 55.16652 12.82029 17832 ft 296 kts 188°
2026-05-05 11:12 55.14654 12.81442 17413 ft 287 kts 203°
2026-05-05 11:13 55.12888 12.79963 16763 ft 279 kts 218°
2026-05-05 11:13 55.11471 12.77730 16138 ft 273 kts 233°
2026-05-05 11:13 55.10441 12.74976 15522 ft 270 kts 243°
2026-05-05 11:13 55.09618 12.72036 14917 ft 268 kts 248°
2026-05-05 11:14 55.09304 12.68869 14364 ft 267 kts 274°
2026-05-05 11:14 55.09896 12.65803 13794 ft 272 kts 300°
2026-05-05 11:14 55.11267 12.63497 13172 ft 279 kts 321°
2026-05-05 11:14 55.12938 12.61735 12457 ft 282 kts 325°
2026-05-05 11:15 55.14663 12.60015 11670 ft 287 kts 325°
2026-05-05 11:15 55.16395 12.58295 11026 ft 285 kts 325°
2026-05-05 11:15 55.18114 12.56583 10416 ft 282 kts 325°
2026-05-05 11:15 55.19809 12.54889 9822 ft 279 kts 325°
2026-05-05 11:16 55.21485 12.53203 9164 ft 276 kts 326°
2026-05-05 11:16 55.23141 12.51515 8520 ft 273 kts 325°
2026-05-05 11:16 55.24765 12.49831 7877 ft 270 kts 326°
2026-05-05 11:16 55.26367 12.48139 7241 ft 267 kts 326°
2026-05-05 11:17 55.27943 12.46441 6613 ft 264 kts 325°
2026-05-05 11:17 55.29496 12.44739 5944 ft 262 kts 326°
2026-05-05 11:17 55.31018 12.43036 5475 ft 253 kts 325°
2026-05-05 11:17 55.32431 12.41436 5339 ft 231 kts 325°
2026-05-05 11:18 55.33725 12.39970 5201 ft 213 kts 325°
2026-05-05 11:18 55.34922 12.38613 5026 ft 200 kts 325°
2026-05-05 11:18 55.36082 12.37293 4787 ft 197 kts 325°
2026-05-05 11:18 55.37227 12.35984 4580 ft 195 kts 325°
2026-05-05 11:19 55.38384 12.34762 4418 ft 195 kts 339°
2026-05-05 11:19 55.39718 12.34629 4304 ft 196 kts
2026-05-05 11:19 55.41046 12.35248 4161 ft 197 kts 14°
2026-05-05 11:19 55.42355 12.35970 4041 ft 199 kts 15°
2026-05-05 11:20 55.43650 12.36778 3910 ft 196 kts 22°
2026-05-05 11:20 55.44785 12.38108 3762 ft 198 kts 39°
2026-05-05 11:20 55.45798 12.39736 3623 ft 197 kts 39°
2026-05-05 11:20 55.46825 12.41349 3435 ft 198 kts 39°
2026-05-05 11:21 55.47860 12.42981 3193 ft 201 kts 39°
2026-05-05 11:21 55.48914 12.44570 2981 ft 196 kts 37°
2026-05-05 11:21 55.49937 12.46036 2819 ft 185 kts 36°
2026-05-05 11:21 55.50915 12.47526 2470 ft 185 kts 39°
2026-05-05 11:22 55.51877 12.49014 2103 ft 184 kts 38°
2026-05-05 11:22 55.52827 12.50486 1758 ft 176 kts 39°
2026-05-05 11:22 55.53711 12.51852 1467 ft 162 kts 39°
2026-05-05 11:22 55.54532 12.53114 1237 ft 149 kts 39°
2026-05-05 11:23 55.55276 12.54252 1040 ft 138 kts 39°
2026-05-05 11:23 55.55983 12.55404 867 ft 139 kts 39°
2026-05-05 11:23 55.56728 12.56508 766 ft 141 kts 37°
2026-05-05 11:23 55.57474 12.57644 575 ft 140 kts 40°
2026-05-05 11:24 55.58185 12.58802 377 ft 138 kts 40°
2026-05-05 11:24 55.58905 12.59912 183 ft 137 kts 38°
2026-05-05 11:24 55.59636 12.60987 33 ft 128 kts 44°
2026-05-05 11:24 55.60275 12.61980 115 ft 130 kts 39°
2026-05-05 11:25 55.60887 12.62933 1058 ft 104 kts 39°
2026-05-05 11:25 55.61434 12.63885 1171 ft 139 kts 39°
2026-05-05 11:25 55.62132 12.65194 1893 ft 127 kts 44°
2026-05-05 11:25 55.62581 12.66088 2072 ft 87 kts 22°
2026-05-05 11:26 55.63554 12.66853 838 ft 186 kts 24°
2026-05-05 11:26 55.64698 12.67684 1853 ft 164 kts 24°
2026-05-05 11:26 55.65676 12.68522 2653 ft 150 kts 26°
2026-05-05 11:26 55.66628 12.69225 3224 ft 151 kts
2026-05-05 11:27 55.67650 12.69146 3321 ft 146 kts 338°
2026-05-05 11:27 55.68428 12.68050 3350 ft 151 kts 303°
2026-05-05 11:27 55.68814 12.66128 3449 ft 186 kts 272°
2026-05-05 11:27 55.68490 12.63688 3509 ft 218 kts 251°
2026-05-05 11:28 55.67919 12.61319 3672 ft 196 kts 249°
2026-05-05 11:28 55.67328 12.59000 3930 ft 221 kts 248°
2026-05-05 11:28 55.66693 12.56521 3996 ft 221 kts 248°
2026-05-05 11:28 55.66057 12.54033 4008 ft 221 kts 248°
2026-05-05 11:29 55.65424 12.51555 4006 ft 221 kts 248°
2026-05-05 11:29 55.64787 12.49049 4026 ft 234 kts 248°
2026-05-05 11:29 55.64083 12.46246 4011 ft 257 kts 248°
2026-05-05 11:29 55.63335 12.43340 4010 ft 262 kts 243°
2026-05-05 11:30 55.62119 12.40937 4006 ft 266 kts 219°
2026-05-05 11:30 55.60603 12.39052 3996 ft 267 kts 215°
2026-05-05 11:30 55.59077 12.37256 4007 ft 267 kts 215°
2026-05-05 11:30 55.57527 12.35442 4005 ft 267 kts 215°
2026-05-05 11:31 55.55977 12.33634 4010 ft 267 kts 215°
2026-05-05 11:31 55.54436 12.31842 3728 ft 264 kts 215°
2026-05-05 11:31 55.52890 12.30038 3389 ft 261 kts 215°
2026-05-05 11:31 55.51385 12.28279 3262 ft 264 kts 216°
2026-05-05 11:32 55.49851 12.26487 3139 ft 264 kts 215°
2026-05-05 11:32 55.48316 12.24702 3015 ft 265 kts 213°
2026-05-05 11:32 55.46607 12.23572 3003 ft 266 kts 186°
2026-05-05 11:32 55.44785 12.24005 3005 ft 267 kts 156°
2026-05-05 11:33 55.43296 12.25759 3001 ft 249 kts 137°
2026-05-05 11:33 55.42066 12.27750 2965 ft 232 kts 136°
2026-05-05 11:33 55.40911 12.29613 2907 ft 219 kts 136°
2026-05-05 11:33 55.39823 12.31376 2899 ft 207 kts 135°
2026-05-05 11:34 55.38768 12.33099 2916 ft 207 kts 135°
2026-05-05 11:34 55.37717 12.34828 2933 ft 206 kts 135°
2026-05-05 11:34 55.36681 12.36566 2944 ft 205 kts 130°
2026-05-05 11:34 55.35991 12.38681 2986 ft 198 kts 99°
2026-05-05 11:35 55.36102 12.41047 2995 ft 197 kts 62°
2026-05-05 11:35 55.36994 12.42784 3015 ft 194 kts 25°
2026-05-05 11:35 55.38265 12.43580 2934 ft 194 kts 15°
2026-05-05 11:35 55.39545 12.44272 2799 ft 192 kts 15°
2026-05-05 11:36 55.40833 12.44939 2677 ft 193 kts 14°
2026-05-05 11:36 55.42069 12.45579 2645 ft 176 kts 16°
2026-05-05 11:36 55.43192 12.46188 2539 ft 163 kts 14°
2026-05-05 11:36 55.44260 12.46739 2354 ft 157 kts 15°
2026-05-05 11:37 55.45254 12.47468 2166 ft 153 kts 28°
2026-05-05 11:37 55.46173 12.48322 2029 ft 145 kts
2026-05-05 11:37 55.47139 12.48407 1932 ft 137 kts 359°
2026-05-05 11:37 55.48108 12.48443 1909 ft 141 kts
2026-05-05 11:38 55.49113 12.48504 1932 ft 147 kts
2026-05-05 11:38 55.50137 12.48586 1958 ft 147 kts
2026-05-05 11:38 55.51150 12.48650 1942 ft 145 kts
2026-05-05 11:38 55.52099 12.49231 1869 ft 150 kts 36°
2026-05-05 11:39 55.52874 12.50467 1815 ft 151 kts 39°
2026-05-05 11:39 55.53630 12.51728 1617 ft 150 kts 39°
2026-05-05 11:39 55.54410 12.52940 1447 ft 149 kts 39°
2026-05-05 11:39 55.55192 12.54169 1212 ft 149 kts 39°
2026-05-05 11:40 55.55964 12.55352 977 ft 149 kts 38°
2026-05-05 11:40 55.56753 12.56540 746 ft 148 kts 38°
2026-05-05 11:40 55.57512 12.57735 529 ft 146 kts 40°
2026-05-05 11:40 55.58274 12.58933 321 ft 147 kts 38°
2026-05-05 11:41 55.59045 12.60093 107 ft 143 kts 39°
2026-05-05 11:41 55.59753 12.61176 18 ft 116 kts 41°
2026-05-05 11:41 55.60213 12.61890 21 ft 48 kts 41°
2026-05-05 11:41 55.60438 12.62222 22 ft 38 kts 44°
2026-05-05 11:42 55.60607 12.62536 25 ft 33 kts 56°
2026-05-05 11:42 55.60693 12.62904 23 ft 32 kts 71°
2026-05-05 11:42 55.60710 12.62996 21 ft 0 kts 72°
2026-05-05 11:43 55.60722 12.63059 20 ft 12 kts 71°
2026-05-05 11:43 55.60753 12.63212 20 ft 15 kts 70°
2026-05-05 11:44 55.60791 12.63412 20 ft 19 kts 71°
2026-05-05 11:44 55.60776 12.63606 22 ft 18 kts 133°
2026-05-05 11:44 55.60694 12.63790 23 ft 20 kts 118°
2026-05-05 11:44 55.60754 12.64005 25 ft 26 kts 43°
2026-05-05 11:45 55.60937 12.64280 22 ft 37 kts 40°
2026-05-05 11:45 55.61138 12.64590 20 ft 39 kts 41°
2026-05-05 11:45 55.61342 12.64903 21 ft 40 kts 41°
2026-05-05 11:45 55.61559 12.65246 17 ft 42 kts 41°
2026-05-05 11:46 55.61746 12.65525 20 ft 23 kts 42°
2026-05-05 11:46 55.61743 12.65739 22 ft 20 kts 108°
2026-05-05 11:46 55.61688 12.65904 25 ft 26 kts 120°
2026-05-05 11:46 55.61646 12.66208 21 ft 28 kts 76°
2026-05-05 11:47 55.61770 12.66402 18 ft 22 kts 12°
2026-05-05 11:47 55.61840 12.66470 17 ft 11 kts 76°
2026-05-05 11:47 55.61877 12.66507 17 ft 7 kts
2026-05-05 11:47 55.61904 12.66498 17 ft 0 kts 348°